Temp
71 70 70 71 71 70 69 68 68 68 70 71 70 71 72 72 71 70 70 71 71 72 70 69 69 70 71 72 71 72 72 72 70 70 67 66 65 65 66 67 68 70 72 71 72 68 66 58 57 60 62 61 62 63 66 66 66 65 65 66 69 68 67
72 71 72 72 71 70 67 67 68 68 68 69 70 70 72 74 72 71 71 71 71 72 73 73 71 70 70 70 69 69 70 71 71 71 70 68 70 65 63 66 69 70 70 71 71 72 67 63 57 58 57 60 61 63 63 66 68 67 67 68 70 70 68
71 70 71 71 71 70 67 67 67 67 68 68 68 70 70 73 73 72 72 71 71 71 72 73 72 71 70 70 69 69 70 70 71 70 70 71 71 67 68 67 67 67 68 68 68 69 69 68 61 59 58 58 58 61 65 65 66 67 68 67 68 70 69
69 69 69 69 70 70 68 67 69 70 71 71 71 70 70 71 72 73 72 72 72 72 73 72 71 72 71 71 71 70 70 70 71 70 69 70 71 70 69 70 70 70 68 67 67 69 68 65 63 60 62 66 65 62 64 66 67 69 70 69 69 69 69
69 70 70 68 70 70 69 69 70 70 70 70 70 71 70 72 72 72 71 71 71 71 71 72 72 72 72 71 70 70 70 70 70 70 70 69 68 70 69 71 72 72 72 71 71 71 70 69 67 63 63 67 69 69 67 65 69 69 70 71 71 70 70
70 71 71 70 71 71 71 70 70 70 70 70 71 71 70 69 71 70 70 71 71 72 72 72 72 72 72 71 70 69 70 69 69 69 69 69 69 69 70 71 72 72 72 73 73 72 71 71 69 65 68 70 65 65 68 69 67 70 71 70 72 72 72
68 69 71 70 70 71 72 71 71 71 71 72 72 72 72 71 71 71 71 71 72 72 71 71 72 71 72 72 71 70 70 70 70 69 70 69 69 69 71 70 71 72 72 72 72 72 71 70 69 68 66 67 67 67 69 69 70 69 69 71 72 72 72
68 69 71 71 70 70 71 72 72 72 73 73 74 73 71 71 70 70 70 70 70 70 71 71 71 71 71 72 73 71 70 71 70 69 69 69 69 69 69 71 70 70 67 71 73 73 74 72 71 69 66 62 63 66 65 69 69 69 69 70 72 72 72
68 69 69 70 71 71 70 72 71 71 73 72 72 72 70 71 70 70 70 70 71 71 71 71 71 72 70 71 71 71 71 71 70 68 69 69 69 69 69 70 71 71 69 69 73 73 75 74 73 71 69 67 64 61 64 64 67 67 70 69 70 72 72
67 68 68 68 69 70 70 71 71 70 70 71 70 70 70 69 69 70 71 70 70 71 71 71 71 71 71 71 71 70 71 71 71 71 70 70 70 70 70 69 71 71 71 71 73 73 73 73 74 72 73 70 70 66 62 62 63 65 67 71 69 70 73
67 68 68 68 69 69 69 70 70 69 70 70 70 69 70 69 69 69 70 70 70 70 71 71 72 71 71 71 70 71 71 70 70 70 70 70 69 71 70 70 71 71 71 71 72 72 72 72 72 72 73 74 74 70 67 65 63 67 67 69 72 70 71
67 67 68 68 69 69 69 69 70 70 69 69 70 69 69 70 70 69 70 70 70 69 70 70 70 71 71 71 70 70 68 70 71 70 69 69 69 70 70 69 68 65 68 70 71 71 71 71 72 73 73 72 72 72 70 69 64 66 70 66 69 74 72
67 67 67 68 69 70 70 70 69 68 69 70 70 70 71 71 70 70 70 70 69 70 70 69 70 70 70 70 70 71 69 69 71 70 70 70 70 69 70 70 70 69 69 71 70 70 70 71 72 73 72 71 71 71 72 71 68 65 68 70 70 71 73
65 66 67 68 69 69 69 70 70 70 70 69 69 70 70 71 71 71 71 71 71 70 69 69 70 70 71 69 69 69 69 70 71 70 69 67 69 69 70 70 70 70 71 71 71 70 71 71 71 71 72 72 71 71 71 70 69 66 66 68 70 71 72
66 67 67 67 68 68 68 69 68 69 68 68 70 71 71 70 70 71 71 71 70 71 70 70 70 71 71 70 68 68 69 70 70 69 68 69 69 68 69 70 70 70 71 72 70 73 72 72 72 72 72 72 72 71 72 73 71 68 65 66 68 72 70
65 65 66 67 67 67 67 67 68 68 68 68 69 71 70 70 70 71 71 70 70 70 71 71 70 70 70 71 71 69 68 70 69 69 68 68 70 70 69 69 69 69 69 70 70 72 72 72 74 74 73 73 73 72 73 74 71 69 68 67 69 69 69
64 65 65 65 65 65 66 66 68 68 69 70 69 68 70 71 70 70 70 70 71 71 70 70 70 71 71 71 71 71 70 70 70 70 70 70 70 70 70 69 69 69 69 69 70 70 71 72 72 74 72 72 71 71 71 70 73 72 70 68 67 72 71
64 64 64 64 64 65 65 66 67 68 68 69 69 69 69 70 70 71 70 71 71 71 71 71 71 70 69 70 70 70 71 71 70 71 70 69 67 70 69 70 69 70 69 69 68 70 71 70 73 73 73 73 73 71 70 70 72 73 70 69 67 70 71
63 64 64 64 65 65 66 66 66 65 67 67 67 69 69 70 71 72 72 72 72 72 72 71 72 71 71 70 70 69 70 70 71 71 70 70 70 70 70 70 69 70 70 69 69 70 70 70 71 71 72 73 74 71 69 69 70 71 72 72 70 66 68
62 62 63 64 65 66 66 66 67 66 67 67 67 67 68 70 69 71 71 71 71 71 71 71 71 70 71 71 71 70 70 70 70 69 69 70 69 69 70 70 69 69 70 71 70 69 69 69 69 70 71 70 72 70 68 69 71 70 70 70 70 70 68
62 62 62 63 64 65 66 65 66 67 68 67 67 68 68 68 68 69 70 71 70 70 70 70 71 71 71 70 70 70 70 70 71 70 69 69 68 69 68 69 69 70 71 71 71 71 70 70 70 70 69 69 69 68 68 68 68 70 69 69 69 68 69
61 60 60 61 62 63 64 64 64 63 64 64 65 66 66 67 68 69 69 68 69 68 69 69 71 70 71 69 70 70 69 71 70 71 70 70 69 69 69 69 69 70 67 63 58 61 63 63 70 69 67 68 68 67 68 68 68 68 69 69 68 69 68
60 59 59 59 59 60 60 59 59 60 61 61 61 61 61 62 65 67 69 69 68 66 66 66 57 50 53 68 70 71 69 69 70 71 71 70 70 69 69 69 67 60 56 55 53 49 48 51 56 66 70 68 67 68 68 67 68 69 68 67 68 67 66
60 58 58 58 58 59 61 62 61 59 58 59 59 59 58 59 61 63 66 67 66 65 63 57 43 46 46 45 62 68 69 69 69 70 70 70 70 70 69 69 69 63 61 59 59 45 47 46 47 48 52 56 61 70 69 67 68 68 68 68 69 68 67
57 57 57 58 59 59 59 58 58 58 59 58 58 59 58 59 60 62 63 64 62 60 55 43 40 41 44 44 51 65 67 69 68 69 70 70 71 70 70 69 68 67 68 69 70 66 56 46 45 45 45 46 47 48 52 66 69 67 66 68 67 67 67
55 55 56 55 56 57 57 56 55 55 55 56 56 57 58 58 59 60 62 62 60 57 52 41 41 40 39 42 42 53 69 67 68 69 69 69 70 70 70 69 68 67 67 59 64 70 70 66 48 43 45 44 44 44 45 44 47 64 71 67 68 67 67
53 53 54 55 55 56 55 54 54 55 56 57 56 56 57 57 58 59 60 60 59 56 52 42 40 40 40 39 39 47 66 65 66 67 67 67 67 68 68 69 69 68 68 67 68 68 68 68 67 63 62 63 65 57 44 43 43 40 50 67 69 68 70
50 50 51 53 54 53 53 53 53 54 55 55 55 55 56 56 57 58 59 60 59 55 50 40 39 39 40 40 40 48 64 62 65 66 66 66 66 66 67 66 67 68 69 68 67 64 66 66 66 66 66 66 67 67 66 65 64 65 65 65 68 70 71
50 49 49 49 49 51 51 51 51 53 54 54 54 54 54 55 55 56 57 58 58 56 52 40 40 39 39 40 43 61 63 64 64 65 65 65 66 66 66 66 66 66 67 67 58 47 54 66 66 66 65 67 67 66 66 56 47 49 58 64 66 65 65
50 50 50 49 49 50 51 51 50 52 53 52 51 51 52 53 55 55 56 56 56 56 54 44 39 40 40 39 49 62 62 65 65 64 65 64 65 65 65 66 67 67 67 68 55 43 44 50 66 66 66 66 66 66 67 59 42 38 38 38 40 42 42
49 50 51 50 49 49 50 51 51 50 49 49 49 48 49 53 54 54 54 53 54 55 54 45 40 40 40 38 46 60 62 63 63 63 64 65 66 65 64 56 60 66 66 68 52 44 40 52 65 66 66 65 65 65 65 63 58 55 39 40 39 40 42
52 51 51 51 51 51 50 50 51 51 51 51 51 52 50 53 53 53 52 51 49 52 54 49 41 40 40 39 48 59 61 63 62 61 62 63 63 65 65 60 52 56 60 57 44 44 39 50 64 65 64 64 63 64 66 65 60 59 59 59 58 56 52
51 51 50 50 50 51 52 52 52 52 52 53 51 52 53 54 53 52 53 53 51 52 53 53 46 39 40 40 39 54 59 59 57 57 59 60 61 63 63 64 61 47 42 42 41 41 40 40 58 64 64 64 63 63 67 66 63 64 63 62 62 60 60
50 50 50 50 50 50 51 51 51 51 51 52 52 52 51 52 52 52 52 52 52 51 51 51 49 39 40 39 39 44 56 53 53 54 56 58 60 60 62 63 63 53 44 43 42 41 40 39 42 58 62 64 65 62 59 66 60 49 62 61 60 58 59
49 49 50 51 50 50 50 51 50 50 51 51 50 50 50 51 51 51 52 51 51 51 50 46 50 42 39 39 38 38 49 49 46 50 53 56 58 59 59 59 59 51 43 41 40 40 40 40 38 51 57 49 46 44 60 63 63 60 61 61 60 59 58
48 49 49 50 50 49 50 50 49 50 49 50 49 49 49 49 50 50 51 52 52 51 51 51 42 47 40 39 38 37 36 42 37 47 51 52 53 55 57 55 54 45 40 40 40 39 40 40 40 47 43 42 42 40 45 59 61 59 59 59 58 58 57
47 48 49 49 49 49 48 49 49 49 49 49 50 49 50 49 50 49 49 50 51 51 51 51 46 41 44 39 39 39 38 37 38 46 47 49 52 53 53 53 48 40 39 39 39 39 39 39 45 41 40 40 40 41 50 55 55 56 56 54 53 53 53
MSLP
1016.67 1017.03 1017.27 1017.47 1017.67 1018.07 1018.39 1018.67 1018.83 1018.99 1019.11 1019.11 1019.31 1019.35 1019.31 1019.43 1019.55 1019.71 1019.75 1019.83 1019.95 1020.03 1020.31 1020.63 1020.71 1020.79 1020.83 1020.87 1021.03 1021.15 1021.35 1021.59 1021.83 1022.03 1022.55 1022.87 1023.11 1023.07 1023.07 1022.99 1022.91 1022.71 1022.63 1022.71 1022.67 1023.15 1023.75 1025.11 1025.71 1025.63 1025.63 1025.75 1025.71 1025.71 1025.63 1025.79 1025.91 1026.07 1026.19 1026.15 1026.07 1026.15 1026.15
1016.27 1016.75 1017.03 1017.31 1017.63 1017.91 1018.39 1018.67 1018.75 1018.99 1019.11 1019.19 1019.27 1019.35 1019.39 1019.35 1019.55 1019.63 1019.71 1019.79 1019.91 1019.99 1020.07 1020.19 1020.47 1020.67 1020.83 1020.99 1021.23 1021.43 1021.55 1021.63 1021.75 1021.83 1022.15 1022.55 1022.47 1022.99 1023.51 1023.11 1022.83 1022.87 1022.95 1022.87 1022.91 1022.83 1023.63 1024.55 1025.55 1025.67 1026.03 1026.03 1025.99 1026.03 1026.11 1026.07 1026.07 1026.15 1026.23 1026.23 1026.19 1026.15 1026.27
1016.43 1016.79 1016.91 1017.27 1017.51 1017.87 1018.47 1018.67 1018.79 1018.95 1019.07 1019.23 1019.39 1019.43 1019.55 1019.47 1019.47 1019.55 1019.71 1019.79 1019.95 1019.99 1020.03 1020.07 1020.27 1020.55 1020.75 1021.03 1021.27 1021.35 1021.43 1021.67 1021.75 1021.91 1022.03 1022.07 1022.19 1022.79 1022.91 1022.99 1023.07 1023.23 1023.23 1023.35 1023.35 1023.27 1023.47 1023.63 1024.75 1025.63 1025.87 1025.99 1026.27 1026.31 1026.19 1026.23 1026.27 1026.27 1026.31 1026.39 1026.35 1026.27 1026.39
1016.71 1016.79 1017.07 1017.35 1017.51 1017.87 1018.31 1018.63 1018.71 1018.79 1018.83 1018.99 1019.15 1019.35 1019.47 1019.51 1019.59 1019.63 1019.71 1019.79 1019.83 1019.91 1019.99 1020.07 1020.35 1020.51 1020.75 1020.91 1021.07 1021.23 1021.39 1021.55 1021.67 1021.91 1022.07 1022.15 1022.19 1022.47 1022.67 1022.55 1022.67 1022.71 1022.91 1023.23 1023.39 1023.35 1023.43 1023.99 1024.51 1025.27 1025.47 1025.15 1025.55 1026.27 1026.31 1026.27 1026.27 1026.27 1026.31 1026.43 1026.43 1026.47 1026.51
1016.63 1016.83 1016.95 1017.31 1017.51 1017.75 1018.11 1018.43 1018.59 1018.71 1018.87 1018.95 1019.07 1019.23 1019.43 1019.47 1019.59 1019.67 1019.79 1019.87 1019.95 1019.95 1020.03 1020.07 1020.27 1020.43 1020.63 1020.87 1021.07 1021.27 1021.35 1021.51 1021.59 1021.87 1022.03 1022.27 1022.35 1022.35 1022.47 1022.31 1022.27 1022.27 1022.39 1022.55 1022.71 1022.91 1023.19 1023.47 1023.87 1024.79 1024.99 1024.95 1025.19 1025.43 1026.11 1026.39 1026.23 1026.27 1026.31 1026.31 1026.31 1026.51 1026.55
1016.55 1016.59 1016.83 1017.23 1017.43 1017.67 1017.95 1018.27 1018.47 1018.59 1018.79 1018.95 1019.07 1019.15 1019.35 1019.51 1019.55 1019.75 1019.83 1019.91 1019.91 1019.95 1019.91 1019.99 1020.11 1020.35 1020.55 1020.79 1021.03 1021.23 1021.31 1021.51 1021.67 1021.87 1022.03 1022.15 1022.23 1022.27 1022.31 1022.27 1022.27 1022.31 1022.39 1022.31 1022.43 1022.79 1022.95 1023.19 1023.63 1024.51 1024.63 1024.71 1025.35 1025.71 1025.87 1025.91 1026.15 1026.15 1026.15 1026.31 1026.31 1026.39 1026.47
1016.59 1016.55 1016.67 1017.07 1017.43 1017.55 1017.75 1018.03 1018.15 1018.31 1018.51 1018.63 1018.79 1018.91 1019.07 1019.31 1019.43 1019.55 1019.67 1019.75 1019.79 1019.87 1019.99 1020.07 1020.15 1020.31 1020.43 1020.59 1020.83 1021.11 1021.27 1021.35 1021.47 1021.79 1021.87 1022.03 1022.19 1022.19 1022.15 1022.31 1022.35 1022.31 1022.39 1022.35 1022.47 1022.67 1022.99 1023.31 1023.67 1023.87 1024.39 1024.91 1025.15 1025.43 1025.63 1025.63 1025.79 1025.91 1026.31 1026.23 1026.31 1026.39 1026.51
1016.59 1016.47 1016.55 1016.83 1017.23 1017.51 1017.63 1017.83 1017.99 1018.11 1018.27 1018.47 1018.55 1018.75 1019.03 1019.23 1019.39 1019.55 1019.63 1019.75 1019.87 1019.95 1020.03 1020.11 1020.19 1020.27 1020.39 1020.47 1020.63 1020.95 1021.15 1021.23 1021.43 1021.59 1021.75 1021.99 1022.15 1022.19 1022.23 1022.19 1022.31 1022.51 1022.95 1022.63 1022.43 1022.51 1022.55 1022.83 1023.19 1023.71 1024.19 1025.23 1025.67 1025.51 1025.67 1025.47 1025.71 1025.75 1025.99 1026.31 1026.31 1026.43 1026.51
1016.55 1016.51 1016.71 1016.87 1017.07 1017.27 1017.63 1017.75 1018.03 1018.15 1018.19 1018.39 1018.63 1018.79 1019.07 1019.19 1019.43 1019.55 1019.63 1019.75 1019.83 1019.95 1020.03 1020.07 1020.15 1020.15 1020.35 1020.47 1020.63 1020.83 1021.03 1021.15 1021.39 1021.63 1021.71 1021.79 1021.95 1022.03 1022.11 1022.07 1022.19 1022.31 1022.67 1022.91 1022.43 1022.43 1022.39 1022.55 1022.83 1023.19 1023.59 1023.99 1024.75 1025.75 1025.67 1025.83 1025.71 1025.95 1025.91 1026.15 1026.39 1026.39 1026.51
1016.51 1016.55 1016.71 1016.95 1017.15 1017.39 1017.55 1017.75 1017.99 1018.19 1018.35 1018.51 1018.75 1018.87 1019.11 1019.27 1019.43 1019.55 1019.67 1019.79 1019.91 1019.99 1020.07 1020.11 1020.19 1020.27 1020.35 1020.43 1020.59 1020.79 1020.91 1021.03 1021.19 1021.35 1021.47 1021.59 1021.67 1021.79 1021.83 1022.03 1022.03 1022.15 1022.35 1022.43 1022.39 1022.43 1022.51 1022.67 1022.75 1023.07 1023.27 1023.59 1023.71 1024.47 1025.51 1025.75 1025.99 1025.91 1026.15 1025.87 1026.19 1026.47 1026.43
1016.35 1016.51 1016.71 1017.03 1017.27 1017.51 1017.71 1017.87 1018.07 1018.39 1018.51 1018.59 1018.75 1018.95 1019.11 1019.35 1019.51 1019.63 1019.67 1019.83 1019.95 1019.99 1020.11 1020.19 1020.23 1020.31 1020.39 1020.47 1020.59 1020.71 1020.79 1020.99 1021.15 1021.31 1021.43 1021.43 1021.63 1021.63 1021.79 1021.91 1021.95 1022.15 1022.35 1022.39 1022.43 1022.47 1022.55 1022.71 1022.95 1023.15 1023.31 1023.27 1023.31 1023.91 1024.43 1024.99 1025.59 1025.47 1025.75 1025.95 1025.71 1026.11 1026.39
1016.39 1016.63 1016.83 1017.03 1017.23 1017.47 1017.75 1017.91 1018.11 1018.31 1018.51 1018.67 1018.83 1019.03 1019.23 1019.35 1019.47 1019.63 1019.67 1019.83 1019.95 1020.11 1020.23 1020.35 1020.39 1020.39 1020.39 1020.51 1020.67 1020.71 1020.91 1020.91 1020.95 1021.15 1021.31 1021.39 1021.55 1021.59 1021.79 1022.03 1022.31 1022.71 1022.71 1022.51 1022.47 1022.63 1022.75 1022.87 1023.07 1023.19 1023.35 1023.47 1023.63 1023.67 1024.03 1024.31 1025.31 1025.55 1025.27 1025.95 1025.87 1025.63 1026.03
1016.35 1016.59 1016.87 1017.07 1017.31 1017.47 1017.71 1017.95 1018.19 1018.47 1018.59 1018.71 1018.87 1019.03 1019.19 1019.31 1019.43 1019.59 1019.71 1019.87 1020.03 1020.11 1020.31 1020.43 1020.43 1020.51 1020.55 1020.59 1020.67 1020.67 1020.87 1020.91 1020.91 1021.07 1021.19 1021.27 1021.43 1021.59 1021.71 1021.91 1022.15 1022.35 1022.51 1022.35 1022.55 1022.79 1022.95 1023.03 1023.15 1023.23 1023.47 1023.71 1023.83 1023.87 1023.91 1024.15 1024.51 1025.39 1025.51 1025.39 1025.59 1025.83 1025.87
1016.51 1016.71 1016.95 1017.07 1017.27 1017.59 1017.79 1017.99 1018.19 1018.35 1018.59 1018.83 1018.99 1019.15 1019.27 1019.39 1019.47 1019.59 1019.75 1019.87 1019.99 1020.15 1020.27 1020.43 1020.47 1020.51 1020.55 1020.71 1020.75 1020.79 1020.87 1020.87 1020.91 1021.03 1021.19 1021.39 1021.43 1021.55 1021.63 1021.79 1021.95 1022.03 1022.15 1022.27 1022.43 1022.79 1022.87 1023.03 1023.27 1023.39 1023.51 1023.71 1023.95 1024.03 1024.03 1024.23 1024.51 1025.15 1025.63 1025.67 1025.55 1025.67 1025.83
1016.55 1016.75 1016.95 1017.19 1017.39 1017.63 1017.87 1018.07 1018.31 1018.51 1018.75 1018.99 1019.03 1019.19 1019.31 1019.43 1019.51 1019.63 1019.79 1019.95 1020.11 1020.15 1020.23 1020.35 1020.43 1020.43 1020.55 1020.71 1020.87 1020.91 1020.91 1020.91 1020.95 1021.11 1021.23 1021.35 1021.43 1021.59 1021.71 1021.83 1021.91 1022.07 1022.07 1022.19 1022.43 1022.51 1022.75 1022.99 1023.19 1023.39 1023.59 1023.67 1023.83 1024.03 1023.91 1024.07 1024.35 1024.75 1025.43 1025.75 1025.75 1025.63 1025.95
1016.67 1016.87 1017.11 1017.31 1017.55 1017.75 1017.99 1018.23 1018.39 1018.63 1018.87 1019.11 1019.19 1019.19 1019.35 1019.43 1019.59 1019.67 1019.87 1019.99 1020.07 1020.19 1020.19 1020.27 1020.35 1020.43 1020.59 1020.63 1020.71 1020.87 1020.91 1020.91 1020.95 1021.07 1021.23 1021.35 1021.39 1021.55 1021.75 1021.83 1021.95 1022.07 1022.19 1022.31 1022.47 1022.43 1022.63 1022.83 1022.87 1023.11 1023.39 1023.51 1023.67 1023.87 1023.91 1023.87 1024.23 1024.59 1024.95 1025.39 1025.35 1025.63 1025.75
1016.75 1016.99 1017.27 1017.47 1017.71 1017.91 1018.15 1018.39 1018.55 1018.71 1018.83 1018.95 1019.15 1019.35 1019.39 1019.47 1019.67 1019.83 1019.95 1020.03 1020.07 1020.15 1020.23 1020.31 1020.39 1020.39 1020.51 1020.63 1020.71 1020.75 1020.83 1020.91 1020.91 1020.95 1021.11 1021.31 1021.43 1021.55 1021.59 1021.79 1021.95 1022.07 1022.19 1022.35 1022.47 1022.59 1022.63 1022.75 1022.91 1022.91 1023.27 1023.51 1023.67 1023.95 1023.99 1024.15 1023.95 1024.11 1024.47 1024.99 1025.31 1025.07 1025.31
1016.67 1016.99 1017.31 1017.59 1017.87 1018.11 1018.35 1018.59 1018.75 1018.87 1018.91 1019.03 1019.15 1019.27 1019.43 1019.55 1019.71 1019.83 1019.99 1020.03 1020.11 1020.19 1020.23 1020.31 1020.39 1020.51 1020.59 1020.67 1020.75 1020.83 1020.87 1020.91 1020.99 1021.03 1021.15 1021.27 1021.47 1021.47 1021.59 1021.67 1021.83 1021.99 1022.19 1022.31 1022.55 1022.59 1022.67 1022.87 1022.79 1022.91 1023.15 1023.27 1023.47 1023.67 1023.99 1024.07 1023.95 1023.99 1024.31 1024.55 1024.99 1024.99 1025.07
1016.95 1017.07 1017.35 1017.67 1017.95 1018.19 1018.47 1018.71 1018.95 1019.11 1019.15 1019.31 1019.39 1019.31 1019.39 1019.51 1019.59 1019.79 1019.91 1019.99 1020.07 1020.15 1020.23 1020.31 1020.35 1020.43 1020.55 1020.67 1020.79 1020.91 1020.95 1020.99 1021.03 1021.11 1021.23 1021.27 1021.35 1021.55 1021.59 1021.63 1021.83 1021.99 1022.15 1022.27 1022.43 1022.51 1022.63 1022.79 1022.91 1022.99 1023.07 1023.15 1023.19 1023.59 1023.91 1024.07 1024.07 1024.07 1024.07 1024.11 1024.43 1025.11 1025.23
1016.95 1017.15 1017.39 1017.75 1018.03 1018.23 1018.51 1018.75 1018.91 1019.19 1019.35 1019.47 1019.59 1019.67 1019.67 1019.63 1019.75 1019.83 1019.99 1020.11 1020.15 1020.23 1020.31 1020.39 1020.43 1020.55 1020.55 1020.63 1020.71 1020.83 1020.95 1021.03 1021.15 1021.31 1021.35 1021.35 1021.47 1021.55 1021.63 1021.75 1021.91 1021.99 1022.07 1022.11 1022.31 1022.51 1022.67 1022.83 1022.95 1023.03 1023.07 1023.27 1023.31 1023.51 1023.87 1023.91 1023.91 1024.03 1024.07 1024.11 1024.27 1024.39 1024.79
1017.43 1017.55 1017.71 1017.95 1018.19 1018.39 1018.63 1018.87 1019.07 1019.19 1019.27 1019.51 1019.67 1019.79 1019.91 1019.95 1019.99 1019.99 1020.03 1020.11 1020.19 1020.31 1020.39 1020.47 1020.47 1020.47 1020.51 1020.63 1020.75 1020.83 1020.87 1020.99 1021.03 1021.23 1021.43 1021.51 1021.59 1021.67 1021.71 1021.79 1021.91 1022.03 1022.03 1022.07 1022.15 1022.31 1022.47 1022.67 1022.79 1022.99 1023.07 1023.23 1023.35 1023.59 1023.71 1023.79 1023.91 1023.87 1023.95 1024.03 1024.07 1024.31 1024.35
1017.71 1017.79 1018.07 1018.35 1018.47 1018.55 1018.71 1018.87 1019.03 1019.27 1019.47 1019.71 1019.83 1019.95 1020.07 1020.07 1020.11 1020.07 1020.11 1020.19 1020.23 1020.39 1020.43 1020.47 1020.47 1020.51 1020.51 1020.71 1020.71 1020.75 1020.87 1020.91 1021.07 1021.19 1021.35 1021.51 1021.71 1021.75 1021.79 1021.79 1021.91 1021.91 1022.07 1022.27 1022.39 1022.43 1022.47 1022.63 1022.71 1022.91 1023.15 1023.19 1023.35 1023.47 1023.55 1023.59 1023.67 1023.79 1023.75 1023.83 1023.99 1024.03 1024.31
1018.23 1018.35 1018.47 1018.63 1018.95 1018.83 1018.87 1019.11 1019.39 1019.47 1019.47 1019.59 1019.75 1019.83 1020.03 1020.39 1020.27 1020.11 1020.07 1020.11 1020.27 1020.51 1020.71 1020.87 1021.19 1021.15 1021.07 1020.71 1020.63 1020.67 1020.83 1020.91 1020.99 1021.07 1021.27 1021.47 1021.67 1021.79 1021.83 1021.91 1022.07 1022.27 1022.39 1022.55 1022.67 1022.83 1022.91 1022.91 1022.87 1022.67 1022.71 1023.03 1023.19 1023.31 1023.39 1023.51 1023.55 1023.51 1023.59 1023.79 1023.79 1023.99 1024.23
1018.55 1018.75 1019.11 1019.07 1019.19 1019.27 1019.43 1019.63 1019.83 1020.03 1020.15 1020.11 1020.23 1020.35 1020.43 1020.51 1020.59 1020.43 1020.31 1020.31 1020.39 1020.63 1020.95 1021.55 1021.63 1021.27 1021.15 1021.27 1021.07 1020.87 1020.83 1020.87 1020.99 1021.07 1021.19 1021.35 1021.47 1021.63 1021.75 1021.79 1021.87 1022.11 1022.15 1022.19 1022.27 1022.43 1022.51 1022.59 1022.67 1022.71 1022.83 1022.83 1022.83 1022.87 1023.07 1023.39 1023.39 1023.39 1023.47 1023.47 1023.43 1023.71 1023.75
1019.19 1019.39 1019.43 1019.51 1019.63 1019.79 1020.03 1020.19 1020.31 1020.43 1020.47 1020.59 1020.71 1020.63 1020.67 1020.71 1020.83 1020.67 1020.63 1020.63 1020.83 1021.23 1021.91 1022.47 1021.91 1021.55 1021.35 1021.27 1021.23 1021.07 1020.99 1020.99 1021.07 1021.07 1021.07 1021.15 1021.23 1021.39 1021.51 1021.63 1021.71 1021.83 1021.83 1021.83 1021.87 1021.99 1022.15 1022.31 1022.47 1022.67 1022.83 1022.91 1022.99 1023.03 1022.99 1022.95 1023.03 1023.35 1023.47 1023.39 1023.47 1023.47 1023.55
1019.75 1019.99 1020.11 1020.27 1020.35 1020.31 1020.47 1020.67 1020.87 1020.95 1021.07 1021.11 1020.91 1020.79 1020.91 1020.87 1020.99 1020.99 1020.87 1020.91 1021.27 1021.71 1022.31 1022.87 1022.35 1021.99 1021.75 1021.59 1021.55 1021.31 1020.95 1021.07 1021.07 1021.07 1021.11 1021.11 1021.19 1021.27 1021.35 1021.47 1021.59 1021.71 1021.75 1021.95 1021.99 1021.87 1021.91 1022.15 1022.55 1022.83 1022.99 1023.15 1023.23 1023.19 1023.15 1023.19 1023.27 1023.15 1022.99 1023.15 1023.19 1023.27 1023.31
1020.35 1020.55 1020.59 1020.63 1020.67 1020.75 1020.83 1021.19 1021.31 1021.31 1021.27 1021.11 1021.03 1021.15 1021.19 1021.19 1021.19 1021.19 1021.19 1021.19 1021.55 1022.07 1022.63 1023.19 1022.87 1022.39 1022.11 1021.87 1021.71 1021.63 1021.11 1021.15 1021.15 1021.15 1021.23 1021.31 1021.35 1021.35 1021.35 1021.43 1021.47 1021.59 1021.67 1021.87 1021.83 1021.87 1021.95 1022.07 1022.31 1022.67 1022.83 1022.87 1022.79 1022.95 1023.31 1023.35 1023.31 1023.39 1023.39 1023.07 1022.87 1022.95 1022.71
1020.99 1021.15 1021.15 1021.11 1021.19 1021.39 1021.51 1021.59 1021.55 1021.59 1021.59 1021.59 1021.55 1021.59 1021.63 1021.55 1021.59 1021.55 1021.51 1021.51 1021.71 1022.23 1023.07 1023.35 1023.03 1022.83 1022.51 1022.15 1021.91 1021.55 1021.23 1021.35 1021.23 1021.19 1021.23 1021.31 1021.43 1021.51 1021.59 1021.71 1021.75 1021.67 1021.67 1021.79 1021.87 1022.07 1022.19 1022.27 1022.39 1022.43 1022.51 1022.51 1022.51 1022.51 1022.67 1022.83 1022.95 1022.99 1023.03 1022.99 1022.71 1022.55 1022.51
1021.47 1021.63 1021.79 1021.79 1021.83 1021.95 1022.07 1022.07 1022.11 1022.03 1021.91 1021.99 1022.07 1022.03 1022.15 1022.11 1022.07 1022.03 1021.99 1021.95 1021.95 1022.27 1022.99 1023.35 1023.15 1022.91 1022.67 1022.35 1021.99 1021.31 1021.19 1021.19 1021.23 1021.23 1021.27 1021.31 1021.39 1021.39 1021.51 1021.67 1021.75 1021.83 1021.79 1021.83 1021.95 1022.31 1022.35 1022.23 1022.27 1022.35 1022.35 1022.31 1022.35 1022.47 1022.47 1022.67 1022.95 1023.11 1022.99 1022.83 1022.71 1022.71 1022.79
1021.87 1021.95 1022.03 1022.15 1022.27 1022.35 1022.35 1022.51 1022.55 1022.43 1022.31 1022.51 1022.67 1022.67 1022.79 1022.75 1022.59 1022.47 1022.43 1022.35 1022.31 1022.43 1022.79 1023.35 1023.27 1023.07 1022.79 1022.47 1021.79 1021.35 1021.35 1021.11 1021.11 1021.19 1021.19 1021.31 1021.31 1021.35 1021.47 1021.47 1021.47 1021.43 1021.43 1021.47 1021.79 1022.19 1022.39 1022.39 1022.15 1022.15 1022.11 1022.07 1022.11 1022.19 1022.03 1022.51 1023.15 1023.23 1023.23 1023.27 1023.23 1023.19 1023.19
1022.27 1022.27 1022.23 1022.39 1022.59 1022.75 1022.75 1022.79 1022.87 1022.91 1022.91 1022.91 1023.07 1023.31 1023.03 1023.03 1022.91 1022.87 1022.91 1022.87 1022.87 1022.67 1022.95 1023.55 1023.55 1023.35 1023.11 1022.79 1022.27 1021.71 1021.47 1021.27 1021.31 1021.27 1021.23 1021.23 1021.19 1021.31 1021.35 1021.59 1021.51 1021.31 1021.27 1021.15 1021.35 1021.87 1022.15 1022.23 1021.87 1021.75 1021.75 1021.79 1021.87 1021.87 1021.71 1021.91 1022.51 1022.79 1023.11 1023.15 1023.19 1023.15 1023.11
1022.51 1022.55 1022.59 1022.75 1022.83 1022.87 1022.99 1023.03 1023.07 1023.07 1023.07 1023.07 1023.11 1023.03 1023.11 1023.15 1023.11 1023.07 1023.19 1023.27 1023.35 1023.03 1023.07 1023.43 1023.75 1023.63 1023.47 1023.23 1022.75 1022.03 1021.75 1021.43 1021.39 1021.47 1021.43 1021.27 1021.27 1021.19 1021.23 1021.31 1021.55 1021.55 1021.39 1021.39 1021.79 1022.03 1022.19 1022.11 1021.59 1021.51 1021.47 1021.51 1021.55 1021.47 1021.15 1021.27 1021.95 1022.19 1022.47 1022.63 1022.71 1022.87 1022.95
1022.99 1022.95 1023.03 1023.07 1023.03 1023.03 1022.99 1023.03 1023.11 1023.11 1023.15 1023.11 1023.31 1023.31 1023.23 1023.19 1023.15 1023.23 1023.31 1023.31 1023.43 1023.39 1023.31 1023.31 1023.79 1023.87 1023.71 1023.51 1023.31 1022.59 1022.11 1021.99 1022.07 1022.07 1021.87 1021.71 1021.39 1021.19 1021.19 1021.11 1021.07 1021.27 1021.51 1021.75 1021.83 1022.03 1022.23 1022.27 1021.79 1021.35 1021.31 1021.27 1021.11 1020.99 1020.71 1020.91 1021.19 1021.39 1021.63 1021.79 1021.87 1022.23 1022.31
1023.35 1023.39 1023.35 1023.39 1023.39 1023.35 1023.31 1023.35 1023.39 1023.35 1023.31 1023.31 1023.35 1023.43 1023.51 1023.43 1023.47 1023.51 1023.55 1023.59 1023.59 1023.71 1023.79 1023.63 1023.71 1023.99 1023.91 1023.83 1023.71 1023.27 1022.67 1023.07 1023.07 1022.83 1022.39 1021.95 1021.55 1021.31 1021.15 1021.07 1020.99 1021.19 1021.83 1022.19 1022.19 1022.19 1022.23 1022.19 1022.07 1021.63 1021.19 1020.91 1020.71 1020.71 1020.79 1020.79 1021.15 1021.63 1021.43 1021.55 1021.87 1022.11 1022.27
1023.75 1023.75 1023.67 1023.55 1023.51 1023.59 1023.63 1023.63 1023.59 1023.55 1023.47 1023.51 1023.55 1023.63 1023.63 1023.55 1023.51 1023.59 1023.59 1023.67 1023.71 1023.71 1023.83 1024.07 1023.83 1023.95 1024.07 1024.07 1024.07 1024.03 1023.55 1023.71 1024.07 1023.55 1022.87 1022.31 1021.99 1021.67 1021.55 1021.55 1021.51 1021.59 1021.71 1022.03 1022.31 1022.23 1022.19 1022.23 1022.15 1022.03 1021.39 1021.07 1021.15 1021.47 1021.19 1020.95 1021.03 1021.39 1021.35 1021.43 1021.55 1021.79 1021.95
1024.11 1023.99 1023.99 1023.87 1023.83 1023.83 1023.79 1023.75 1023.79 1023.75 1023.71 1023.63 1023.67 1023.71 1023.79 1023.79 1023.63 1023.59 1023.59 1023.55 1023.63 1023.71 1023.75 1023.71 1024.07 1023.95 1024.11 1024.15 1024.15 1024.19 1024.31 1024.23 1024.35 1023.91 1023.39 1023.03 1022.67 1022.27 1022.07 1022.11 1022.07 1022.23 1022.27 1021.95 1021.87 1022.11 1022.15 1022.07 1022.11 1021.87 1021.63 1021.59 1021.63 1021.75 1021.79 1021.27 1021.03 1021.11 1021.11 1021.23 1021.43 1021.51 1021.79
1024.55 1024.35 1024.27 1024.19 1024.11 1024.11 1024.07 1023.95 1023.87 1023.83 1023.83 1023.67 1023.59 1023.59 1023.59 1023.67 1023.59 1023.59 1023.59 1023.59 1023.59 1023.63 1023.63 1023.59 1023.63 1023.91 1024.03 1024.19 1024.19 1024.23 1024.23 1024.31 1024.39 1024.07 1023.95 1023.39 1022.99 1022.67 1022.47 1022.43 1022.55 1022.67 1022.47 1022.19 1021.83 1021.55 1021.67 1021.79 1021.67 1021.51 1021.55 1021.55 1021.59 1021.75 1021.71 1021.27 1021.07 1020.95 1021.11 1021.31 1021.55 1021.63 1021.83
Wind_Speed
11 11 10 9 8 8 8 7 6 6 5 5 5 5 5 5 5 6 6 6 6 5 5 5 5 5 5 5 5 5 4 5 6 5 6 7 7 5 3 1 2 4 5 1 7 6 7 7 4 5 6 6 6 5 4 4 4 4 3 3 4 4 4
9 9 9 9 9 8 9 7 7 6 5 4 4 5 5 6 5 6 6 6 6 5 5 5 5 6 6 6 6 6 5 5 5 3 5 7 6 5 2 3 3 4 3 2 5 4 7 8 6 5 4 5 6 5 4 4 3 3 3 3 3 4 4
7 8 7 10 10 9 9 8 6 6 5 5 4 4 5 5 5 5 5 6 5 5 4 5 5 5 5 5 6 6 6 5 4 4 4 4 4 6 5 4 5 5 4 3 4 5 5 6 9 7 5 6 6 4 3 3 3 3 3 3 3 4 4
9 8 8 8 9 10 9 8 7 7 7 7 6 5 4 3 4 4 4 5 4 4 5 5 4 4 4 4 5 6 6 6 5 5 5 3 3 5 6 6 6 6 5 5 6 6 6 5 8 9 8 8 9 8 3 3 3 4 4 3 3 4 3
9 7 9 9 8 9 9 8 5 5 4 4 4 5 5 5 5 5 4 4 4 4 5 4 4 4 3 3 3 4 4 5 4 4 5 5 5 4 6 5 5 4 3 4 6 6 7 6 8 10 9 9 8 5 5 4 4 4 4 4 3 4 3
8 9 8 8 7 8 7 7 7 6 5 5 5 5 5 6 5 5 5 5 5 5 4 3 3 3 3 3 3 4 5 5 4 4 4 5 5 5 5 5 4 4 4 2 4 6 5 6 9 9 8 8 7 7 6 5 4 4 3 3 3 3 4
6 7 8 8 7 6 6 7 7 7 6 6 5 5 4 5 3 3 3 3 3 3 3 2 2 3 3 3 3 3 4 4 3 4 4 4 4 4 3 5 5 5 2 3 5 6 7 8 9 10 11 7 6 7 6 4 5 5 3 3 3 3 3
5 6 7 7 7 7 6 7 6 5 6 5 5 3 4 3 3 3 3 3 3 3 3 3 2 3 3 2 2 3 3 3 4 4 3 4 4 5 5 4 5 4 3 3 5 7 8 8 9 10 11 11 6 5 5 4 5 1 6 4 3 4 4
4 5 5 5 6 6 6 6 5 5 4 4 3 3 3 3 4 4 4 4 4 4 4 3 3 2 3 2 2 2 3 2 3 4 3 3 4 4 4 4 4 5 6 6 6 6 7 7 7 9 9 10 11 8 5 6 4 5 4 5 4 4 5
7 8 7 7 6 5 6 4 5 4 4 3 4 3 3 3 3 4 5 5 4 4 4 3 3 3 3 2 2 2 2 2 2 3 3 3 3 4 4 6 4 4 5 5 5 6 6 5 6 6 7 8 8 8 8 7 6 5 6 5 6 6 6
6 6 7 7 6 6 5 4 4 4 4 4 4 3 3 4 4 4 4 5 4 4 4 3 2 2 3 2 3 3 2 2 3 3 3 3 3 3 4 5 3 3 3 5 6 6 6 6 6 7 7 4 4 7 8 8 7 5 7 5 3 8 7
6 6 6 7 7 7 7 5 5 4 4 4 5 4 4 4 4 4 4 4 4 5 4 3 2 2 1 2 2 2 2 3 3 3 3 3 3 4 5 6 5 2 3 5 5 5 5 5 6 6 4 3 1 2 7 6 8 5 4 7 5 5 9
8 7 7 7 6 7 7 6 6 6 5 4 4 4 4 4 4 4 3 4 4 5 5 4 3 3 2 1 1 1 2 2 2 2 3 2 3 4 6 6 7 7 7 5 5 5 6 6 5 6 5 3 2 2 4 5 6 8 5 5 7 6 9
7 6 7 7 7 6 6 6 6 5 5 5 5 5 4 4 4 4 4 3 3 4 5 4 3 3 2 2 1 1 2 1 2 2 2 3 2 4 4 5 5 5 6 6 6 6 6 7 6 4 5 4 3 4 5 5 5 7 4 0 3 6 7
7 7 8 6 6 6 5 5 5 6 6 5 5 5 5 4 4 4 3 4 3 4 4 5 4 3 3 3 2 1 1 2 2 3 3 3 3 3 4 5 5 5 5 6 6 7 7 8 8 7 6 6 5 5 5 5 4 6 7 5 5 4 6
7 7 7 6 6 5 5 4 4 6 5 5 4 4 5 4 4 4 4 4 4 4 4 4 3 3 2 2 2 2 1 1 2 3 3 4 4 4 5 5 6 5 4 5 6 6 7 9 9 9 8 6 6 5 6 3 4 6 7 7 6 7 7
8 7 7 5 6 5 5 4 4 5 5 5 5 4 4 5 5 4 4 4 3 4 4 4 3 3 3 2 1 1 1 1 1 1 2 4 4 5 5 6 5 6 6 6 6 5 6 7 7 7 7 6 5 5 5 3 3 3 6 7 7 7 8
8 8 8 7 8 7 6 5 4 4 5 5 5 5 5 4 4 4 3 4 4 3 3 3 3 3 3 2 2 1 1 0 1 1 1 2 3 3 5 5 6 6 6 6 5 5 6 7 7 6 6 6 6 5 4 4 4 4 5 7 7 5 5
8 9 10 9 9 9 8 7 6 4 4 4 3 3 4 3 3 3 3 3 3 3 2 1 1 2 3 3 3 2 1 1 1 1 1 1 2 3 3 4 5 6 6 6 6 5 6 7 5 6 7 6 6 5 5 5 5 5 6 7 7 6 5
8 8 9 9 8 9 9 8 8 7 6 5 5 3 2 3 2 2 3 2 2 2 2 2 2 2 3 3 3 2 2 2 2 2 1 1 1 1 2 3 4 5 6 5 5 5 5 6 5 6 6 5 5 5 6 6 7 7 7 6 6 6 7
9 8 8 8 8 8 8 7 7 6 6 6 5 4 3 2 2 1 1 2 2 1 2 2 2 2 2 3 2 2 2 2 1 1 2 2 1 1 1 3 4 4 4 4 4 5 5 5 4 5 4 4 5 5 6 6 6 7 7 7 7 7 6
7 9 8 7 7 8 7 6 5 5 5 6 4 5 4 2 0 2 2 1 1 1 2 2 2 2 3 2 2 3 3 3 3 2 2 2 2 1 1 1 1 2 1 2 3 1 1 1 3 4 3 4 5 5 5 5 6 6 6 7 6 5 6
7 7 8 8 6 7 9 8 7 7 6 5 4 5 6 3 1 1 1 2 2 2 3 3 5 7 9 3 3 2 3 3 4 4 3 3 3 2 2 2 2 4 4 5 7 6 7 6 4 1 3 5 5 4 4 4 5 5 6 6 7 6 7
8 9 7 9 7 7 7 5 5 5 5 6 6 5 4 5 4 3 3 3 5 5 5 5 9 4 3 4 4 2 2 3 3 4 4 4 4 4 3 2 2 4 4 5 5 8 7 7 6 4 3 5 4 5 5 5 4 5 6 6 6 6 7
10 9 8 9 9 8 7 6 7 6 6 6 5 5 6 6 5 5 4 7 8 7 6 10 11 8 2 3 2 2 2 2 2 3 3 4 4 4 4 3 2 2 2 2 2 3 4 5 5 4 4 6 7 8 6 5 4 5 6 6 6 7 7
10 9 9 8 7 8 8 8 7 7 7 4 4 7 6 6 6 5 6 9 9 8 7 11 11 11 9 4 1 3 2 2 2 2 2 2 2 2 2 2 2 2 2 4 4 4 3 4 4 4 4 4 6 8 9 9 7 4 4 7 7 7 8
10 9 8 8 8 8 9 9 7 6 5 5 7 7 7 7 7 7 7 8 8 8 9 11 11 12 10 8 4 2 2 2 2 2 2 2 2 2 2 3 3 3 3 3 3 3 4 3 3 4 4 5 5 7 8 9 9 7 6 6 8 9 8
9 8 9 9 9 9 8 7 8 6 6 7 7 7 7 7 7 7 7 7 7 8 8 10 12 12 12 9 5 2 1 0 2 2 2 2 3 3 2 2 3 3 2 3 3 2 3 3 3 4 5 6 6 5 5 7 8 7 7 7 8 9 5
8 8 8 8 9 9 8 7 7 5 6 7 6 6 6 7 7 8 7 7 7 8 8 13 13 13 13 11 7 1 2 2 1 1 1 1 2 2 2 2 3 4 4 4 5 5 5 4 5 6 6 6 5 4 5 2 3 3 4 4 4 3 3
8 8 7 8 8 8 8 8 7 5 7 7 7 7 6 6 6 6 7 7 7 7 8 13 14 14 14 13 7 4 3 2 1 1 1 0 1 1 2 3 4 5 5 5 8 12 10 8 6 7 7 7 6 6 7 4 5 3 3 4 5 6 6
8 7 8 9 8 7 6 6 6 6 6 6 7 5 5 4 5 6 7 8 7 6 7 10 13 14 14 14 9 5 4 4 3 3 2 1 2 1 2 5 6 5 5 6 5 11 11 10 7 7 7 8 7 7 7 4 3 3 5 5 4 2 3
8 8 9 8 7 7 7 6 5 5 5 5 5 4 6 3 4 5 6 6 8 7 6 8 12 12 13 14 10 5 5 4 4 5 4 3 2 3 3 4 7 7 6 6 5 3 7 8 7 6 7 7 8 9 8 6 6 6 5 5 4 4 3
8 8 8 7 7 7 6 6 6 6 5 5 5 4 4 4 5 5 5 6 6 7 7 7 9 11 12 13 13 7 5 5 6 6 5 4 5 3 2 4 3 5 5 4 5 1 5 7 7 8 7 8 8 9 7 5 6 6 6 6 5 5 4
8 8 7 6 6 6 6 6 5 5 5 5 4 5 5 4 4 4 4 5 5 6 6 6 7 10 10 11 12 10 5 6 5 5 5 5 5 5 4 4 5 3 4 4 2 3 5 7 7 7 9 10 9 4 3 5 3 5 6 5 4 4 4
7 6 6 6 6 6 5 5 5 5 4 4 5 5 5 4 4 4 3 4 5 5 5 7 7 7 8 8 8 9 6 5 5 5 5 4 5 4 4 5 5 10 15 10 5 5 4 7 9 8 10 12 8 3 5 7 3 4 6 6 6 6 6
6 5 6 6 6 6 5 5 5 5 4 4 4 4 4 4 3 4 3 3 3 4 4 3 5 5 6 5 5 4 3 3 4 4 4 5 5 5 5 5 6 9 14 17 14 8 6 7 7 9 13 13 12 9 5 8 7 6 6 6 6 7 6
5 6 6 5 5 5 5 4 4 4 4 4 3 4 4 3 3 3 3 3 3 3 3 4 2 3 4 3 1 1 1 1 1 2 3 4 4 5 5 6 8 14 15 15 15 15 11 8 8 10 11 13 13 9 7 9 8 6 6 5 6 6 6
Wind_Direction
169 164 162 157 150 147 146 146 146 151 161 168 168 178 178 174 177 176 181 186 184 176 167 175 180 184 189 192 199 205 193 185 185 181 168 158 192 164 170 149 96 136 145 326 160 167 147 137 115 79 72 68 77 84 82 64 66 68 71 69 89 87 76
148 146 150 149 147 145 141 143 143 142 147 151 160 163 167 166 169 171 174 181 187 175 189 174 173 185 191 190 194 200 205 196 197 194 170 180 203 140 150 137 132 135 138 134 170 167 145 141 133 135 116 88 88 88 67 62 79 87 90 84 80 94 92
132 138 142 149 149 146 140 138 134 139 145 149 153 160 163 171 166 166 175 181 190 189 197 191 178 189 194 182 199 208 207 202 191 196 205 196 197 136 206 149 145 138 137 137 174 165 151 154 154 152 146 141 124 117 99 100 104 99 101 94 101 92 85
141 144 142 145 146 147 141 140 145 149 153 152 154 156 164 164 166 177 183 187 192 194 202 194 190 186 187 199 194 206 214 216 205 197 203 203 194 170 190 183 171 174 164 173 174 180 170 158 148 148 156 153 136 136 125 107 119 122 123 120 116 109 104
148 153 151 146 148 146 141 146 145 144 144 140 148 151 160 171 176 186 196 197 195 202 204 196 186 186 180 188 202 204 217 226 220 198 200 193 195 197 199 202 206 202 188 194 179 184 182 169 160 154 155 146 143 121 125 119 119 126 131 129 119 115 115
157 154 149 141 141 144 145 141 149 150 149 154 157 159 155 171 178 181 189 193 193 199 199 194 181 181 177 185 198 209 221 214 210 206 205 202 199 212 202 199 210 208 200 196 186 183 175 157 155 152 149 156 142 136 137 150 138 125 122 132 131 122 125
158 149 146 143 143 148 154 155 160 158 159 160 157 159 144 156 165 168 182 190 190 170 176 183 180 165 181 199 183 207 216 219 210 203 209 190 195 213 215 196 200 208 199 188 188 180 169 161 164 160 152 149 141 139 143 154 140 148 129 125 122 127 132
152 152 145 142 149 154 162 161 159 156 161 161 167 137 134 143 131 147 154 156 158 156 159 164 159 151 167 196 180 181 199 207 202 208 192 187 191 194 195 202 193 170 191 244 186 189 181 176 163 156 149 140 133 146 153 147 151 88 126 124 140 141 141
133 129 128 139 149 156 156 160 160 160 159 152 134 139 129 129 127 134 138 134 139 144 148 142 142 145 148 168 158 174 198 180 195 194 189 195 205 188 197 193 194 178 156 203 200 186 188 179 169 159 158 150 151 159 166 157 170 127 147 143 147 154 152
147 148 150 151 147 144 146 151 151 146 132 147 142 139 134 117 122 135 136 131 132 138 132 126 129 132 146 155 157 169 200 165 194 173 181 199 189 196 193 191 192 160 170 173 188 186 184 179 173 155 163 169 167 160 165 167 174 155 170 170 156 165 171
150 137 133 139 141 142 136 137 129 145 159 149 144 138 132 130 123 135 131 127 124 119 115 118 131 142 161 154 153 167 154 165 165 155 175 180 164 180 178 178 180 144 144 176 181 185 181 174 164 163 178 183 190 176 170 167 160 175 157 175 178 158 177
121 128 132 138 148 148 149 145 149 140 132 141 141 142 143 133 128 121 120 125 126 120 120 124 136 147 176 141 155 155 155 182 180 159 155 171 145 164 168 165 132 125 238 184 169 167 175 170 168 169 172 171 172 212 167 166 153 169 180 172 183 171 172
145 148 148 150 154 150 145 146 141 141 143 143 140 142 141 131 128 121 119 126 132 132 133 134 141 136 145 119 150 168 139 181 178 162 151 164 146 157 164 166 160 167 184 172 157 165 177 171 168 173 166 165 178 188 172 169 163 161 190 183 171 174 175
132 134 143 150 147 137 139 144 146 138 132 139 142 143 137 128 120 117 124 128 137 140 136 134 132 131 126 123 105 84 114 160 167 133 136 138 141 149 165 168 165 159 164 168 154 167 172 168 166 169 165 169 170 177 179 171 158 143 154 179 166 169 174
137 147 144 144 138 140 143 144 132 132 137 131 148 138 133 122 119 124 119 126 130 135 133 125 129 129 126 116 102 98 133 155 149 124 135 138 143 143 159 171 165 159 171 168 156 168 166 170 179 181 181 188 181 177 194 182 168 160 161 168 181 162 160
130 136 133 134 130 127 125 122 134 136 133 132 124 125 126 125 121 120 122 125 131 131 133 126 124 131 121 125 119 125 148 154 150 139 140 142 157 156 166 168 167 160 160 160 163 167 166 177 184 189 187 191 189 181 183 193 169 173 168 170 175 175 176
126 122 118 112 110 109 109 109 122 126 126 128 122 109 114 118 118 121 123 125 121 125 123 123 124 125 124 121 130 136 131 112 95 101 120 136 149 168 169 165 163 162 165 167 168 164 173 176 187 191 185 182 188 179 178 181 197 170 179 167 183 192 178
125 116 111 109 108 109 106 106 101 111 119 115 121 127 116 117 127 134 135 141 137 130 124 123 122 121 123 120 111 122 140 61 50 47 50 95 136 160 165 170 159 163 166 170 164 174 178 182 192 195 196 189 195 184 180 195 196 189 181 190 169 188 165
102 109 109 107 110 110 110 108 101 76 72 100 106 105 120 123 122 126 129 132 145 140 136 130 121 119 124 135 133 124 124 139 84 24 45 40 87 133 167 158 156 165 171 180 179 177 180 186 190 202 205 208 203 181 192 197 209 209 212 204 175 170 188
117 112 108 110 109 107 104 103 99 96 91 85 72 63 60 114 104 121 126 130 132 137 140 146 141 141 144 150 156 162 165 154 134 117 89 61 53 77 131 146 162 173 182 187 178 177 177 184 192 207 210 205 211 195 197 210 209 208 213 202 185 186 181
89 81 89 92 96 101 101 97 98 96 95 86 79 67 62 32 75 74 107 141 116 140 155 164 169 166 175 170 180 183 186 190 193 130 125 115 83 74 101 142 162 175 187 188 190 181 183 190 189 204 198 205 204 202 210 207 207 212 209 206 201 190 192
96 98 88 80 83 88 87 87 96 102 97 87 74 70 51 30 62 155 142 134 141 135 184 175 168 180 176 190 204 197 195 197 188 192 164 147 142 147 151 137 166 173 112 67 52 36 86 46 178 190 185 198 196 203 209 209 209 214 214 212 205 191 188
69 59 66 74 51 52 54 41 32 38 40 39 54 62 65 41 30 101 174 147 115 65 42 41 30 8 348 335 196 209 202 202 193 188 195 181 171 180 175 156 138 135 155 166 166 169 171 189 213 279 169 177 187 195 199 202 206 211 215 213 215 195 201
77 74 72 78 72 66 75 86 78 64 69 71 71 68 69 65 39 35 51 68 72 68 49 25 356 85 108 6 327 284 239 210 196 188 187 198 201 190 188 180 164 156 170 158 155 158 172 180 184 166 178 209 222 209 196 207 217 210 217 222 215 205 215
73 69 72 77 83 88 86 69 63 60 64 67 70 82 71 70 55 53 63 72 67 59 52 12 14 16 93 157 181 261 282 272 217 210 195 200 204 199 197 190 184 177 202 196 187 176 188 199 199 203 202 209 221 248 268 255 228 210 217 228 220 219 222
73 69 67 64 63 72 72 66 60 61 60 53 63 62 61 65 64 58 66 73 66 55 48 12 17 26 23 2 203 246 218 228 255 250 241 231 231 224 219 214 200 198 196 176 212 213 207 191 193 221 238 242 247 237 242 256 281 290 237 228 233 224 222
67 64 64 65 64 66 70 67 65 61 57 51 59 59 53 58 60 58 61 73 72 59 46 17 23 24 25 22 22 269 232 215 223 244 253 258 265 256 238 240 240 234 226 212 228 222 216 210 187 190 210 219 223 216 231 244 247 256 261 249 242 242 228
70 64 62 62 62 58 60 66 62 59 56 52 53 52 41 47 47 52 54 65 74 64 45 22 30 27 21 12 4 251 67 295 247 235 229 225 246 266 287 305 288 278 259 232 227 230 240 227 219 217 221 222 218 222 213 218 220 222 220 225 240 245 259
67 64 60 60 59 59 59 55 58 52 62 59 53 53 49 42 44 47 45 51 64 63 48 28 26 28 22 12 337 32 62 73 53 341 301 287 268 247 238 230 247 251 250 243 171 172 228 238 222 231 231 231 230 222 229 144 32 336 284 265 247 252 267
68 68 68 67 64 57 56 56 52 44 64 60 54 51 46 44 42 48 46 45 49 56 47 25 22 24 23 9 2 36 17 21 42 37 49 8 258 235 233 233 234 245 237 246 170 173 188 200 221 226 233 232 227 226 232 166 157 164 227 250 273 283 279
65 67 71 71 68 64 60 59 56 40 54 65 66 57 63 43 52 53 53 49 36 53 54 36 23 23 22 14 359 18 11 12 4 5 17 6 319 285 226 220 254 253 256 253 192 176 178 190 227 230 232 234 231 233 233 181 173 155 115 103 110 141 213
64 66 69 69 71 74 68 65 63 65 68 64 65 60 60 57 54 57 55 54 39 43 48 48 32 24 22 20 6 11 9 12 10 12 353 346 337 299 298 220 214 246 285 316 14 181 189 205 237 232 237 248 243 242 243 188 181 196 196 190 182 165 144
60 60 61 60 59 61 64 65 59 62 61 70 69 64 61 55 54 51 43 48 45 34 32 38 39 26 26 23 13 358 26 16 10 354 349 338 319 322 301 298 263 197 222 278 318 332 196 218 247 258 253 247 253 253 252 222 191 209 210 218 204 188 180
63 61 58 59 57 54 53 56 59 59 65 64 66 69 65 64 67 63 54 51 53 52 37 24 41 34 28 29 22 11 35 30 6 346 333 326 324 324 324 325 317 334 9 33 337 262 233 225 238 257 253 252 250 333 350 269 177 185 225 211 192 184 173
60 57 53 54 59 59 55 54 53 53 54 58 61 62 51 52 52 55 58 57 51 46 55 51 18 51 32 29 45 32 27 34 7 332 320 320 318 311 318 326 322 334 334 341 4 342 257 225 229 235 248 257 284 50 256 261 236 195 218 208 201 195 190
62 60 59 55 55 51 44 47 48 48 49 58 64 64 60 47 45 42 41 43 39 38 25 41 51 21 46 27 34 71 68 17 327 311 325 313 312 310 316 318 316 343 332 323 319 319 306 277 224 230 239 253 261 249 251 244 230 208 210 203 196 200 191
57 58 54 55 56 53 45 47 51 44 42 44 45 54 53 44 39 37 21 19 18 12 8 354 27 37 6 53 64 350 338 304 240 334 297 277 286 295 303 310 318 320 308 304 303 304 299 277 257 245 236 242 244 242 233 236 221 211 200 189 195 195 187